Starlink 30593

operational
NORAD ID: 58112 Int'l Des: 2023-161 Owner: SPXS Country: US Constellation: starlink
LEOCIRCULAR

Über Starlink 30593

Beschreibung wird geladen...

Live-Position

3D-Globus wird geladen...

Nächste Überflüge

Höhenverlauf

Altitude vs Time

uPlot chart will show altitude changes over time

Zweizeiliger Elementsatz

1 58112U 23161R 25302.49518125 .00002599 00000-0 99831-4 0 9996
2 58112 53.1611 55.0193 0001426 93.9248 266.1915 15.30205205114332
Epoch: 29. Okt. 2025 • Age: 16 hours

Aktueller Status

Höhe 484.6 km
Geschwindigkeit 7.62 km/s
Subsatellitenpunkt -29.04°S, 62.09°W
Startdatum 21. Okt. 2023
Alter 2 years
Typ internet

Technische Details

Klassifizierung Payload
Masse 730.00 kg
Trockenmasse 700.00 kg
Gesamtmasse 730.00 kg
Länge 0.30 m
Durchmesser 4.10 m
Spannweite 29.00 m
Form Box + pan
Hersteller SPXS
Bus-Typ Starlink V2M
Phasenstatus In Orbit
Besitzer/Staat SPXS/US

Große Konstellationen

Loading constellations...